Frankfort, MI

1:18 AM EDT on March 26, 2017 (GMT -0400)
Frankfort

Weather History for KFKS - January, 2014

Change the Weather History Date:

Tuesday, January 28, 2014

  Actual Average (KMBL) Record (KMBL)
Temperature  
Mean Temperature 5 °F -  
Max Temperature 9 °F 29 °F 48 °F (2008)
Min Temperature 1 °F 16 °F -9 °F (1977)
Degree Days  
Heating Degree Days 60    
Moisture  
Dew Point 0 °F    
Average Humidity 77    
Maximum Humidity 81    
Minimum Humidity 73    
Precipitation  
Precipitation 0.00 in - - ()
Sea Level Pressure  
Sea Level Pressure 30.12 in    
Wind  
Wind Speed 13 mph (West)    
Max Wind Speed 20 mph    
Max Gust Speed 31 mph    
Visibility 2 miles    
Events Snow    
Averages and records for this station are not official NWS values.
T = Trace of Precipitation, MM = Missing Value Source: NWS Daily Summary

Daily Weather History Graph

Daily Weather History Graph

Search for Another Location

Airport or City:

Trip Planner

Search our weather history database for the weather conditions in past years. The results will help you decide how hot, cold, wet, or windy it might be!

Date:

Astronomy

Jan. 28, 2014 Rise Set
Actual Time 8:07 AM EST 5:48 PM EST
Civil Twilight 7:36 AM EST 6:19 PM EST
Nautical Twilight 7:01 AM EST 6:54 PM EST
Astronomical Twilight 6:27 AM EST 7:29 PM EST
Moon 5:50 AM EST (1/28) 3:36 PM EST (1/28)
Length of Visible Light 10h 42m
Length of Day
9h 40m
Waning Crescent, 7% of the Moon is Illuminated
Jan 28
Waning Crescent
Jan 30
New
Feb 6
First Quarter
Feb 14
Full
Feb 22
Last Quarter

Hourly Weather History & Observations

Time (EST) Temp. Windchill Dew Point Humidity Pressure Visibility Wind Dir Wind Speed Gust Speed Precip Events Conditions
12:16 AM 4.1 °F -12.7 °F -1.3 °F 78% 30.20 in 2.5 mi WNW 12.7 mph - N/A Snow Light Snow
12:36 AM 4.1 °F -13.4 °F -1.3 °F 78% 30.20 in 2.0 mi West 13.8 mph 17.3 mph N/A Snow Light Snow
12:56 AM 4.1 °F -12.7 °F -1.5 °F 78% 30.20 in 2.0 mi WNW 12.7 mph 18.4 mph N/A Snow Light Snow
1:16 AM 3.9 °F -13.7 °F -1.3 °F 79% 30.20 in 1.5 mi WNW 13.8 mph 18.4 mph N/A Snow Light Snow
1:36 AM 3.9 °F -13.0 °F -1.3 °F 79% 30.20 in 1.8 mi WNW 12.7 mph 23.0 mph N/A Snow Light Snow
1:56 AM 3.7 °F -12.4 °F -1.3 °F 80% 30.19 in 2.0 mi WNW 11.5 mph 19.6 mph N/A Snow Light Snow
2:16 AM 3.4 °F -13.6 °F -2.4 °F 77% 30.19 in 3.0 mi West 12.7 mph 20.7 mph N/A Snow Light Snow
2:31 AM 3.2 °F -15.3 °F -2.4 °F 78% 30.19 in 3.0 mi West 15.0 mph 21.9 mph N/A Snow Light Snow
2:51 AM 3.0 °F -14.8 °F -2.6 °F 78% 30.19 in 2.5 mi West 13.8 mph 25.3 mph N/A Snow Light Snow
3:12 AM 2.7 °F -15.3 °F -3.1 °F 77% 30.19 in 2.0 mi WNW 13.8 mph 25.3 mph N/A Snow Light Snow
3:32 AM 2.3 °F -15.0 °F -3.6 °F 76% 30.19 in 2.0 mi West 12.7 mph 20.7 mph N/A Snow Light Snow
3:52 AM 2.3 °F -15.7 °F -2.4 °F 81% 30.18 in 1.2 mi WNW 13.8 mph 19.6 mph N/A Snow Light Snow
4:12 AM 2.3 °F -16.4 °F -2.7 °F 79% 30.18 in 1.2 mi West 15.0 mph 21.9 mph N/A Snow Light Snow
4:32 AM 2.3 °F -14.2 °F -2.7 °F 79% 30.18 in 1.5 mi West 11.5 mph 20.7 mph N/A Snow Light Snow
4:52 AM 1.8 °F -16.4 °F -3.8 °F 77% 30.18 in 1.8 mi West 13.8 mph 20.7 mph N/A Snow Light Snow
5:12 AM 1.8 °F -17.8 °F -3.5 °F 79% 30.18 in 1.5 mi WNW 16.1 mph 20.7 mph N/A Snow Light Snow
5:32 AM 1.8 °F -17.1 °F -3.6 °F 78% 30.18 in 2.0 mi West 15.0 mph 23.0 mph N/A Snow Light Snow
5:53 AM 1.8 °F -15.7 °F -3.6 °F 78% 30.18 in 2.5 mi WNW 12.7 mph 20.7 mph N/A Snow Light Snow
6:13 AM 1.9 °F -15.5 °F -3.5 °F 78% 30.18 in 2.0 mi West 12.7 mph 18.4 mph N/A Snow Light Snow
6:33 AM 1.8 °F -15.7 °F -4.0 °F 77% 30.18 in 4.0 mi West 12.7 mph - N/A Snow Light Snow
6:53 AM 1.9 °F -12.9 °F -3.6 °F 77% 30.18 in 3.0 mi West 9.2 mph 16.1 mph N/A Snow Light Snow
7:13 AM 2.3 °F -15.0 °F -2.9 °F 79% 30.18 in 2.0 mi West 12.7 mph 17.3 mph N/A Snow Light Snow
7:33 AM 2.7 °F -13.8 °F -3.3 °F 76% 30.18 in 2.5 mi West 11.5 mph 16.1 mph N/A Snow Light Snow
7:53 AM 2.7 °F -14.5 °F -3.8 °F 74% 30.18 in 4.0 mi West 12.7 mph 17.3 mph N/A Snow Light Snow
8:13 AM 3.2 °F -10.3 °F -1.8 °F 80% 30.18 in 1.8 mi West 8.1 mph - N/A Snow Light Snow
8:33 AM 3.6 °F -10.9 °F -2.2 °F 77% 30.18 in 1.8 mi West 9.2 mph - N/A Snow Light Snow
8:53 AM 3.7 °F -11.6 °F -2.7 °F 74% 30.18 in 2.0 mi West 10.4 mph 18.4 mph N/A Snow Light Snow
9:13 AM 3.7 °F -13.2 °F -3.1 °F 73% 30.18 in 2.5 mi West 12.7 mph 19.6 mph N/A Snow Light Snow
9:34 AM 4.3 °F -11.7 °F -1.5 °F 77% 30.18 in 1.2 mi West 11.5 mph 26.5 mph N/A Snow Light Snow
9:54 AM 4.1 °F -12.7 °F -1.5 °F 78% 30.18 in 1.2 mi West 12.7 mph 20.7 mph N/A Snow Light Snow
10:14 AM 4.8 °F -11.8 °F -0.4 °F 79% 30.18 in 1.0 mi West 12.7 mph 18.4 mph N/A Snow Light Snow
10:34 AM 5.4 °F -11.1 °F -0.6 °F 76% 30.18 in 1.5 mi West 12.7 mph 18.4 mph N/A Snow Light Snow
10:54 AM 5.9 °F -11.8 °F -0.6 °F 75% 30.18 in 2.5 mi West 15.0 mph 23.0 mph N/A Snow Light Snow
11:14 AM 5.9 °F -12.4 °F -0.4 °F 75% 30.19 in 1.5 mi West 16.1 mph 23.0 mph N/A Snow Light Snow
11:34 AM 5.9 °F -8.9 °F -0.6 °F 75% 30.18 in 2.5 mi West 10.4 mph 20.7 mph N/A Snow Light Snow
11:54 AM 6.4 °F -10.5 °F 0.9 °F 78% 30.18 in 1.2 mi West 13.8 mph 24.2 mph N/A Snow Light Snow
12:15 PM 6.4 °F -9.8 °F 1.2 °F 79% 30.17 in 1.0 mi West 12.7 mph 21.9 mph N/A Snow Light Snow
12:35 PM 6.4 °F -11.7 °F 0.7 °F 77% 30.16 in 1.5 mi West 16.1 mph 20.7 mph N/A Snow Light Snow
12:55 PM 6.3 °F -10.7 °F -0.6 °F 73% 30.15 in 1.8 mi West 13.8 mph 18.4 mph N/A Snow Light Snow
1:15 PM 6.3 °F -9.2 °F -0.0 °F 75% 30.14 in 2.0 mi WSW 11.5 mph 19.6 mph N/A Snow Light Snow
1:35 PM 6.6 °F -8.8 °F -0.0 °F 74% 30.13 in 1.8 mi WSW 11.5 mph 20.7 mph N/A Snow Light Snow
1:55 PM 6.6 °F -10.2 °F -0.4 °F 73% 30.12 in 1.8 mi West 13.8 mph 23.0 mph N/A Snow Light Snow
2:15 PM 6.6 °F -8.8 °F 0.1 °F 75% 30.11 in 1.5 mi West 11.5 mph 21.9 mph N/A Snow Light Snow
2:35 PM 6.8 °F -11.3 °F 0.5 °F 75% 30.10 in 1.5 mi West 16.1 mph 21.9 mph N/A Snow Light Snow
2:55 PM 6.8 °F -10.0 °F 0.3 °F 75% 30.09 in 1.2 mi West 13.8 mph 23.0 mph N/A Snow Light Snow
3:16 PM 7.2 °F -8.1 °F 0.5 °F 74% 30.09 in 1.2 mi WSW 11.5 mph 24.2 mph N/A Snow Light Snow
3:36 PM 7.2 °F -8.9 °F 0.9 °F 75% 30.08 in 1.8 mi WSW 12.7 mph 21.9 mph N/A Snow Light Snow
3:56 PM 7.3 °F -6.2 °F 1.0 °F 75% 30.08 in 2.0 mi West 9.2 mph 23.0 mph N/A Snow Light Snow
4:16 PM 7.5 °F -11.4 °F 1.6 °F 77% 30.08 in 1.5 mi WSW 18.4 mph 26.5 mph N/A Snow Light Snow
4:36 PM 7.7 °F -8.9 °F 1.9 °F 77% 30.07 in 2.0 mi WSW 13.8 mph 27.6 mph N/A Snow Light Snow
4:56 PM 7.3 °F -11.1 °F 2.1 °F 79% 30.07 in 1.2 mi West 17.3 mph 23.0 mph N/A Snow Light Snow
5:16 PM 7.3 °F -7.1 °F 1.6 °F 77% 30.06 in 1.0 mi WSW 10.4 mph 24.2 mph N/A Snow Light Snow
5:36 PM 7.3 °F -8.6 °F 1.4 °F 77% 30.05 in 1.5 mi West 12.7 mph 24.2 mph N/A Snow Light Snow
5:56 PM 7.2 °F -11.4 °F 1.0 °F 76% 30.05 in 1.5 mi West 17.3 mph 21.9 mph N/A Snow Light Snow
6:11 PM 7.3 °F -12.2 °F 1.4 °F 77% 30.05 in 1.8 mi West 19.6 mph 26.5 mph N/A Snow Light Snow
6:32 PM 7.2 °F -12.4 °F 1.4 °F 77% 30.05 in 1.5 mi West 19.6 mph 26.5 mph N/A Snow Light Snow
6:52 PM 7.5 °F -11.4 °F 2.1 °F 79% 30.05 in 1.5 mi West 18.4 mph 29.9 mph N/A Snow Light Snow
7:12 PM 7.7 °F -11.2 °F 2.3 °F 79% 30.05 in 2.0 mi WSW 18.4 mph 27.6 mph N/A Snow Light Snow
7:32 PM 8.1 °F -10.2 °F 1.8 °F 75% 30.04 in 2.0 mi WSW 17.3 mph 27.6 mph N/A Snow Light Snow
7:52 PM 8.4 °F -9.2 °F 1.9 °F 75% 30.04 in 2.5 mi West 16.1 mph 26.5 mph N/A Snow Light Snow
8:12 PM 8.4 °F -8.6 °F 2.1 °F 76% 30.03 in 2.5 mi WSW 15.0 mph 29.9 mph N/A Snow Light Snow
8:32 PM 8.8 °F -8.1 °F 2.5 °F 76% 30.02 in 3.0 mi West 15.0 mph 26.5 mph N/A   Haze
8:52 PM 9.0 °F -9.0 °F 2.1 °F 74% 30.01 in 4.0 mi WSW 17.3 mph 25.3 mph N/A   Haze
9:13 PM 9.0 °F -7.9 °F 2.1 °F 74% 30.01 in 3.0 mi WSW 15.0 mph 28.8 mph N/A   Haze
9:33 PM 9.0 °F -9.0 °F 2.1 °F 74% 30.00 in 4.0 mi WSW 17.3 mph 31.1 mph N/A   Haze
9:53 PM 8.8 °F -8.7 °F 2.5 °F 76% 30.00 in 3.0 mi WSW 16.1 mph 28.8 mph N/A Snow Light Snow
10:13 PM 9.1 °F -8.2 °F 3.6 °F 78% 29.99 in 2.5 mi WSW 16.1 mph 25.3 mph N/A Snow Light Snow
10:33 PM 9.1 °F -7.7 °F 2.7 °F 75% 29.99 in 4.0 mi West 15.0 mph 28.8 mph N/A   Haze
10:53 PM 9.1 °F -8.8 °F 3.0 °F 76% 29.99 in 5.0 mi West 17.3 mph 28.8 mph N/A   Haze
11:13 PM 9.1 °F -6.4 °F 3.0 °F 76% 29.99 in 5.0 mi West 12.7 mph 27.6 mph N/A   Haze
11:33 PM 9.0 °F -5.9 °F 2.3 °F 74% 29.98 in 5.0 mi WSW 11.5 mph 23.0 mph N/A   Haze
11:53 PM 8.6 °F -8.3 °F 2.8 °F 77% 29.98 in 3.0 mi West 15.0 mph 29.9 mph N/A   Haze